Preview of NWS' New Version of Forecast
This preview is not operational and should not be used for support decisions.

Regional Weather Roundup (RWR)

Issued by Charleston, WV (RLX)

                            
000
ASUS41 KRLX 201310
RWRRLX
Regional Weather Roundup
National Weather Service Charleston WV
900 AM EDT MON MAY 20 2019

Note: "fair" indicates few or no clouds below 12,000 feet with no
significant weather and/or obstructions to visibility.

WVZ003-201400-
Northern Panhandle of West Virginia
  
CITY           SKY/WX    TMP DP  RH WIND       PRES   REMARKS
WHEELING       CLOUDY    63  59  87 W8        29.92R                  
$$

WVZ009-201400-
Northwest West Virginia
  
CITY           SKY/WX    TMP DP  RH WIND       PRES   REMARKS
PARKERSBURG    PTSUNNY  N/A N/A N/A SW7       29.99R                  
$$

WVZ006-201400-
Western West Virginia
  
CITY           SKY/WX    TMP DP  RH WIND       PRES   REMARKS
HUNTINGTON     PTSUNNY   67  59  75 W7        30.00R                  
$$

WVZ015-201400-
West Central West Virginia
  
CITY           SKY/WX    TMP DP  RH WIND       PRES   REMARKS
CHARLESTON     FAIR      71  59  65 W8        29.98S                  
$$

WVZ022-031-201400-
North Central West Virginia
  
CITY           SKY/WX    TMP DP  RH WIND       PRES   REMARKS
MORGANTOWN     CLOUDY    70  61  73 S6        29.94S                  
CLARKSBURG     FAIR      72  61  68 SW12      29.95S                  
BUCKHANNON     PTSUNNY   66  63  88 SW8       29.98S                  
$$

WVZ025-035-042-045-201400-
Southern West Virginia
  
CITY           SKY/WX    TMP DP  RH WIND       PRES   REMARKS
BECKLEY        CLOUDY    67  59  75 SW7       30.04R                  
LOGAN          FAIR      72  61  68 SW3       30.01R                  
PINEVILLE      CLOUDY    66  65  97 MISG      30.07R                  
BLUEFIELD      CLOUDY    66  57  72 W9        30.08R                  
LEWISBURG      CLOUDY    65  63  95 CALM      30.04S                  
$$

WVZ047-201400-
Northern Mountains of West Virginia
  
CITY           SKY/WX    TMP DP  RH WIND       PRES   REMARKS
ELKINS         CLOUDY    69  57  65 W8        29.99R                  
$$

WVZ052-201400-
Eastern Panhandle of West Virginia
  
CITY           SKY/WX    TMP DP  RH WIND       PRES   REMARKS
MARTINSBURG    FAIR      73  66  78 S5        29.87F                  
PETERSBURG     FAIR      74  62  64 S8        29.91S                  
$$

Southeast Ohio/Northeast Kentucky
  
CITY           SKY/WX    TMP DP  RH WIND       PRES   REMARKS
ATHENS         CLOUDY    63  63 100 SW7       29.97S                  
ASHLAND        CLOUDY    67  61  81 VRB5      30.00R                  
$$